Pangborn Memorial Airport
KEAT : now visible

Airfield :











YOU CAN JOIN US ON...

 
LOGIN :

Register | Disclaimer

   EN    FR    IT 

 









Legend :    VFR   Marginal VFR   IFR   Intensive IFR   Very Intensive IFR
Visi :
Ceiling :
>= 8 km
>= 3000ft
5 to 8 km
1000 to 3000 ft
1500m to 5 km
500 to 1000 ft
800 to 1500m
200 to 500 ft
< 800m
< 200 ft
Symbols :   Thunderstorms  Fog  Heavy snow  Heavy precipitations  Wind > 20 kt






- Airport Elevation : 1249 ft


KEAT - Pangborn Memorial

CURRENT METAR :
  • 121655Z AUTO 27007KT 10SM BKN110 16/04 A3009 RMK AO2 SLP186 T01560039

EXPIRED METARs :
  • 121555Z AUTO 27008KT 10SM OVC110 14/03 A3010 RMK AO2 SLP189 T01390033
  • 121455Z AUTO 27005KT 10SM OVC110 13/04 A3010 RMK AO2 SLP188 T01280039 51004

TAF KEAT
Valid from the 12 at 18:00 until the 13 at 18:00 UTC


121725Z 1218/1318 28006KT P6SM SCT100 BKN200
FM130000 30016G23KT P6SM FEW250
FM130600 30012KT P6SM SCT150
FM131200 29007KT P6SM FEW250
KZSE FIR / North America



MET'MAP, your aeronautical weather chart ! - Copyright ORBIFLY December 2007 - Disclaimer

ORBIFLY MET'MAP TEAM :

Programming & Development : Alexandra Zaïnal
Concept & original design : Baudouin d'Aumeries
Assistance for programming : Marc-Olivier Méhu
Technical & hardware support : Manuel Goepfert

Contact : metmap@orbifly.com




SOURCES & CREDITS :

   NOAA       Earth
Advisory